This demonstration page uses our WeatherBlox Daily Observations layout. Learn more.

Left ArrowRight Arrow

31.31129, -92.44514

Hourly Observations for January 21, 2020

Temp ( °F °C ) Dew Point ( °F °C ) Humidity (%) Winds ( mph kmh ) Pressure ( in mb ) Visibility ( mi km ) Precip ( " mm )
12:53 am 00:53 Clear 32 0 26 -3.3 79 79 Calm 30.53 1034 10 16 0.00 0.00
1:53 am 01:53 Clear 33 0.6 25 -3.9 72 72 Calm 30.53 1034 10 16 0.00 0.00
2:53 am 02:53 Clear 33 0.6 24 -4.4 70 70 NE 3 6 30.53 1034 10 16 0.00 0.00
3:53 am 03:53 Clear 32 0 24 -4.4 73 73 NE 3 6 30.53 1034 10 16 0.00 0.00
4:53 am 04:53 Clear 32 0 25 -3.9 75 75 NE 6 9 30.53 1034 10 16 0.00 0.00
5:53 am 05:53 Clear 30 -1.1 24 -4.4 79 79 NNE 3 6 30.56 1035 10 16 0.00 0.00
6:53 am 06:53 Clear 31 -0.6 23 -5 72 72 NE 5 7 30.57 1035 10 16 0.00 0.00
7:53 am 07:53 Sunny 32 0 24 -4.4 73 73 NNE 5 7 30.59 1036 10 16 0.00 0.00
8:53 am 08:53 Sunny 35 1.7 25 -3.9 67 67 NE 7 11 30.58 1036 10 16 0.00 0.00
9:53 am 09:53 Sunny 39 3.9 25 -3.9 57 57 NE 9 15 30.59 1036 10 16 0.00 0.00
10:53 am 10:53 Sunny 43 6.1 24 -4.4 47 47 VRB 7 11 30.58 1036 10 16 0.00 0.00
11:53 am 11:53 Sunny 44 6.7 25 -3.9 47 47 E 3 6 30.56 1035 10 16 0.00 0.00
12:53 pm 12:53 Sunny 47 8.3 26 -3.3 44 44 ENE 10 17 30.52 1033 10 16 0.00 0.00
1:53 pm 13:53 Sunny 50 10 26 -3.3 39 39 N 9 15 30.48 1032 10 16 0.00 0.00
2:53 pm 14:53 Sunny 50 10 25 -3.9 38 38 N 9 15 30.48 1032 10 16 0.00 0.00
3:53 pm 15:53 Sunny 47 8.3 25 -3.9 42 42 NNE 9 15 30.46 1032 10 16 0.00 0.00
4:53 pm 16:53 Sunny 45 7.2 25 -3.9 46 46 NNE 6 9 30.45 1031 10 16 0.00 0.00
5:53 pm 17:53 Clear 43 6.1 25 -3.9 49 49 NE 7 11 30.43 1031 10 16 0.00 0.00
6:53 pm 18:53 Clear 40 4.4 26 -3.3 58 58 ENE 7 11 30.43 1030 10 16 0.00 0.00
7:53 pm 19:53 Clear 39 3.9 26 -3.3 60 60 ENE 6 9 30.44 1031 10 16 0.00 0.00
8:53 pm 20:53 Clear 38 3.3 25 -3.9 60 60 ENE 6 9 30.43 1031 10 16 0.00 0.00
9:53 pm 21:53 Clear 37 2.8 26 -3.3 65 65 ENE 3 6 30.43 1031 10 16 0.00 0.00
10:53 pm 22:53 Clear 37 2.8 26 -3.3 65 65 ENE 7 11 30.40 1029 10 16 0.00 0.00
11:53 pm 23:53 Clear 37 2.8 26 -3.3 65 65 ESE 3 6 30.41 1030 10 16 0.00 0.00

Powered by AerisWeather